User: anonymous
Location: Clinton NY
(43.0598°N, 75.3602°W)
Time: 12:45:54
(UTC-04:00)
Language:

Iridium 11 - Orbit

View from above orbital plane
View from above orbital plane
View from above satellite
View from above satellite

Ground track
Ground track

The orbit data is extracted from the following two-line orbital elements,

1 25578U 98074B   14293.51111889  .00000233  00000-0  76091-4 0   736
2 25578 086.3922 301.3535 0002206 110.4135 000.3977 14.34216635838273
Epoch (UTC): 20 October 2014 12:16:00
Eccentricity: 0.0002206
inclination: 86.3922°
perigee height: 776 km
apogee height: 779 km
right ascension of ascending node: 301.3535°
argument of perigee: 110.4135°
revolutions per day: 14.34216635
mean anomaly at epoch: 0.3977°
orbit number at epoch: 83827

The dashed part of the orbit path shows where the satellite is in the earth's shadow,  

DLR